View from above orbital plane
|
View from above satellite
|
Ground track
|
The orbit data is extracted from the following two-line orbital elements,
1 20465U 90010A 13139.76880730 .00001821 00000-0 17119-3 0 7850
2 20465 082.4942 236.0794 0015696 255.8069 104.1408 14.93299859262671
| Epoch (UTC): | 19 May 2013 18:27:04 |
| Eccentricity: | 0.0015696 |
| inclination: | 82.4942° |
| perigee height: | 577 km |
| apogee height: | 598 km |
| right ascension of ascending node: | 236.0794° |
| argument of perigee: | 255.8069° |
| revolutions per day: | 14.93299859 |
| mean anomaly at epoch: | 104.1408° |
| orbit number at epoch: | 26267 |
The dashed part of the orbit path shows where the satellite is in the earth's shadow,
|
|